GSAT-10 (GAGAN/PRN 128)

Last updated on Wed Sep 17 2025 00:03:27 GMT+0000 (Coordinated Universal Time)

1 38779U 12051B 25259.62492331 -.00000185 00000+0 00000+0 0 9999 2 38779 0.0561 262.4625 0005747 213.4574 187.8641 1.00272807 47355
UTC large
Height (km)
Speed (km/s)
/
Latitude / Longitude
Inclination (degrees)
Orbital Period (minutes)
Azimuth
Elevation
Range (km)
Doppler Factor

Next 0 passes for location: London (51.5072 / 0.1276)

Sorry there are no passes over London.